Find OneWeb SL0189

NORAD ID: 48217 Int'l Des: 2021-031 Owner: ONEWEBN Country: UK Constellation: oneweb operational
LEOCIRCULARPOLARONEWEB_TYPE

Live Position

Loading 3D Globe...

About OneWeb SL0189

Description loading...

Upcoming Passes

Passes for default location (London). Set your location on the main map for personalized predictions.

Altitude History

Loading altitude history...

Two-Line Element Set

1 48217U 21031H 26124.54764426 .00000265 00000-0 68105-3 0 9998
2 48217 87.8928 298.4049 0001450 87.8153 272.3143 13.14502808242499
Epoch: May 4, 2026 • Age: 16 hours

Current Status

Altitude 1221.5 km
Velocity 7.24 km/s
Sub-Earth Point -39.18°S, 176.12°W
Launch Date Apr 25, 2021
Age 5 years
Type internet

Technical Details

Classification Payload
Mass 148.00 kg
Dry Mass 140.00 kg
Total Mass 148.00 kg
Length 1.30 m
Diameter 1.00 m
Span 5.00 m
Shape Trapezoid+2 pan
Manufacturer ONEWUS
Bus Type ARROW
Phase Status In Orbit
Owner/State ONEWEBN/UK

Most Searched